Regional Weather Roundup
Issued by NWS

Home | Current Version | Previous Version | Graphics & Text | Print | Product List | Glossary On
Versions: 1 2 3 4 5 6 7 8 9 10 11 12 13 14 15 16 17 18 19 20 21 22 23 24 25 26 27 28 29 30 31 32 33 34 35 36 37 38 39 40 41 42 43 44 45 46 47 48 49 50
000
ASUS43 KFSD 060202
RWRSD

WEATHER ROUNDUP FOR SOUTH DAKOTA
NATIONAL WEATHER SERVICE SIOUX FALLS SD
900 PM CDT TUE MAY 05 2015

NOTE: "FAIR" INDICATES FEW OR NO CLOUDS BELOW 12,000 FEET WITH NO
SIGNIFICANT WEATHER AND/OR OBSTRUCTIONS TO VISIBILITY.


SDZ001>005-009-010-012>017-060300-
NORTHWEST AND NORTH CENTRAL SOUTH DAKOTA

CITY           SKY/WX    TMP DP  RH WIND       PRES   REMARKS
BUFFALO          N/A     62  49  62 SE18      29.72S
FAITH            N/A     61  51  70 SE13      29.82S
MOBRIDGE       CLOUDY    63  52  67 SE13      29.85S
$$

SDZ012>016-024>037-041>051-057-063-072>074-060300-
SOUTHWEST AND SOUTH CENTRAL SOUTH DAKOTA

CITY           SKY/WX    TMP DP  RH WIND       PRES   REMARKS
RAPID CTY ARPT CLOUDY    61  50  67 S15       29.83S
PIERRE         CLOUDY    59  54  83 SE10      29.88S
CUSTER         CLOUDY    50  47  89 S6G17     29.89R
PHILIP         CLOUDY    63  55  75 SE12      29.85S
PINE RIDGE     CLOUDY    58  52  80 SE13G22   29.86S
WINNER         LGT RAIN  61  57  87 SE10      29.90S FOG
$$

SDZ004>011-016>023-039-040-060300-
NORTHEAST SOUTH DAKOTA

CITY           SKY/WX    TMP DP  RH WIND       PRES   REMARKS
ABERDEEN       CLOUDY    66  55  67 S13       29.93S
WATERTOWN      CLOUDY    61  56  83 SE12      29.99S
BROOKINGS      CLOUDY    61  57  88 SE16      30.00S
SISSETON         N/A     63  55  75 S20       29.98R
$$

SDZ017-020-022-023-036>040-048>070-060300-
SOUTHEAST SOUTH DAKOTA

CITY           SKY/WX    TMP DP  RH WIND       PRES   REMARKS
SIOUX FALLS    CLOUDY    64  58  80 E16       29.99R
HURON          CLOUDY    63  59  87 SE7       29.93F
MITCHELL       CLOUDY    64  58  80 E6        29.94S
YANKTON        CLOUDY    70  57  64 SE8       29.94S
$$

ABBREVIATIONS USED IN REMARKS
   TC - TEMPERATURE IN CELSIUS
  WCI - WIND CHILL INDEX
   HX - HEAT INDEX
  VSB - VISIBILITY



USA.gov is the U.S. government's official web portal to all federal, state and local government web resources and services.